TimeEST,TemperatureF,Dew PointF,Humidity,Sea Level PressureIn,VisibilityMPH,Wind Direction,Wind SpeedMPH,Gust SpeedMPH,PrecipitationIn,Events,Conditions,WindDirDegrees,DateUTC
12:56 AM,56.8,48.9,75,30.09,8.0,South,10.4,-,N/A,,Mostly Cloudy,180,2012-12-04 05:56:00
1:56 AM,56.8,48.9,75,30.09,8.0,SSW,8.1,-,N/A,,Mostly Cloudy,210,2012-12-04 06:56:00
2:56 AM,55.9,47.8,74,30.09,8.0,South,9.2,-,N/A,,Partly Cloudy,190,2012-12-04 07:56:00
3:56 AM,55.9,47.8,74,30.08,8.0,SSW,8.1,-,N/A,,Mostly Cloudy,200,2012-12-04 08:56:00
4:56 AM,56.8,47.8,72,30.07,8.0,SSW,12.7,-,N/A,,Overcast,200,2012-12-04 09:56:00
5:56 AM,57.9,47.8,69,30.06,8.0,SSW,11.5,-,N/A,,Overcast,210,2012-12-04 10:56:00
6:56 AM,57.9,47.8,69,30.07,7.0,SSW,12.7,-,N/A,,Overcast,210,2012-12-04 11:56:00
7:56 AM,57.9,47.8,69,30.08,7.0,SW,12.7,-,N/A,,Overcast,220,2012-12-04 12:56:00
8:40 AM,57.2,48.2,72,30.08,6.0,SSW,13.8,20.7,N/A,,Haze,210,2012-12-04 13:40:00
8:49 AM,57.2,48.2,72,30.08,6.0,SSW,11.5,-,N/A,,Haze,210,2012-12-04 13:49:00
8:56 AM,59.0,48.9,69,30.07,6.0,SSW,15.0,-,N/A,,Haze,210,2012-12-04 13:56:00
9:56 AM,61.0,52.0,72,30.07,6.0,SSW,13.8,25.3,N/A,,Haze,210,2012-12-04 14:56:00
10:56 AM,61.0,52.9,75,30.06,6.0,SSW,19.6,27.6,N/A,,Haze,200,2012-12-04 15:56:00
11:26 AM,60.8,53.6,77,30.06,6.0,SSW,16.1,21.9,N/A,,Haze,200,2012-12-04 16:26:00
11:56 AM,61.0,52.9,75,30.05,6.0,SSW,16.1,23.0,N/A,,Haze,210,2012-12-04 16:56:00
12:56 PM,61.9,54.0,75,30.01,6.0,SSW,15.0,-,N/A,,Haze,210,2012-12-04 17:56:00
1:56 PM,59.9,55.9,87,30.00,1.2,SW,15.0,-,0.04,Rain,Heavy Rain,220,2012-12-04 18:56:00
2:03 PM,59.0,55.4,88,30.01,1.0,SW,12.7,-,0.01,Rain,Rain,220,2012-12-04 19:03:00
2:05 PM,59.0,55.4,88,30.01,1.5,SW,12.7,-,0.02,Rain,Light Rain,220,2012-12-04 19:05:00
2:16 PM,59.0,55.4,88,30.01,1.0,SW,11.5,-,0.06,Rain,Rain,230,2012-12-04 19:16:00
2:21 PM,59.0,55.4,88,30.01,1.2,SW,10.4,-,0.08,Rain,Rain,220,2012-12-04 19:21:00
2:31 PM,57.2,55.4,94,30.01,1.8,SW,11.5,-,0.10,Rain,Light Rain,220,2012-12-04 19:31:00
2:38 PM,57.2,55.4,94,30.01,2.5,SW,12.7,-,0.11,Rain,Light Rain,220,2012-12-04 19:38:00
2:44 PM,57.2,55.4,94,30.01,1.8,SW,10.4,-,0.13,Rain,Light Rain,220,2012-12-04 19:44:00
2:56 PM,57.9,55.9,93,30.01,2.5,SW,10.4,-,0.14,Rain,Light Rain,220,2012-12-04 19:56:00
3:01 PM,57.2,55.4,94,30.01,1.8,SW,11.5,-,0.01,Rain,Light Rain,220,2012-12-04 20:01:00
3:05 PM,57.2,55.4,94,30.01,2.0,SW,12.7,-,0.01,Rain,Light Rain,230,2012-12-04 20:05:00
3:14 PM,57.2,55.4,94,30.01,3.0,SW,10.4,-,0.01,Rain,Light Rain,220,2012-12-04 20:14:00
3:21 PM,57.2,55.4,94,30.00,2.5,SW,12.7,-,0.02,Rain,Light Rain,220,2012-12-04 20:21:00
3:24 PM,57.2,55.4,94,30.02,1.8,West,20.7,24.2,0.03,Rain,Rain,270,2012-12-04 20:24:00
3:28 PM,55.4,53.6,94,30.00,1.0,North,19.6,24.2,0.07,Rain,Heavy Rain,350,2012-12-04 20:28:00
3:32 PM,53.6,51.8,94,30.02,0.8,NNW,17.3,24.2,0.08,Rain,Heavy Rain,330,2012-12-04 20:32:00
3:47 PM,48.2,46.4,93,30.04,0.5,NNW,17.3,-,0.19,Fog-Rain,Heavy Rain,330,2012-12-04 20:47:00
3:56 PM,48.9,46.9,93,30.04,1.5,NNW,15.0,-,0.20,Rain,Light Rain,330,2012-12-04 20:56:00
4:04 PM,48.2,46.4,93,30.04,2.0,NNW,13.8,-,0.01,Rain,Rain,330,2012-12-04 21:04:00
4:20 PM,48.2,46.4,93,30.06,1.2,NNW,13.8,-,0.07,Rain,Heavy Rain,330,2012-12-04 21:20:00
4:27 PM,46.4,44.6,93,30.07,1.0,NNW,20.7,-,0.08,Rain,Light Rain,340,2012-12-04 21:27:00
4:30 PM,46.4,44.6,93,30.07,2.0,NNW,19.6,23.0,0.08,Rain,Light Rain,340,2012-12-04 21:30:00
4:37 PM,44.6,42.8,93,30.08,4.0,NNW,21.9,-,0.08,Rain,Light Rain,340,2012-12-04 21:37:00
4:46 PM,42.8,37.4,81,30.08,4.0,NNW,21.9,28.8,0.08,Rain,Light Rain,340,2012-12-04 21:46:00
4:56 PM,43.0,37.9,82,30.10,4.0,NNW,12.7,-,0.08,Rain,Light Rain,340,2012-12-04 21:56:00
5:18 PM,42.8,39.2,87,30.10,7.0,North,9.2,-,0.01,,Overcast,350,2012-12-04 22:18:00
5:56 PM,43.0,38.8,85,30.13,5.0,NNW,9.2,-,0.01,Rain,Light Rain,330,2012-12-04 22:56:00
6:08 PM,42.8,39.2,87,30.12,5.0,NNW,9.2,-,0.00,Rain,Light Rain,340,2012-12-04 23:08:00
6:56 PM,43.0,37.9,82,30.15,7.0,NNW,8.1,-,0.01,Rain,Light Rain,330,2012-12-04 23:56:00
7:56 PM,43.0,38.8,85,30.17,7.0,West,5.8,-,0.00,,Mostly Cloudy,280,2012-12-05 00:56:00
8:56 PM,41.9,38.8,89,30.18,7.0,West,5.8,-,N/A,,Mostly Cloudy,280,2012-12-05 01:56:00
9:56 PM,38.8,36.9,93,30.19,7.0,SW,6.9,-,N/A,,Clear,230,2012-12-05 02:56:00
10:56 PM,38.8,36.9,93,30.21,6.0,WSW,8.1,-,N/A,,Clear,250,2012-12-05 03:56:00
11:56 PM,37.9,36.9,96,30.21,6.0,WSW,5.8,-,N/A,,Clear,250,2012-12-05 04:56:00